This demonstration page uses our WeatherBlox Daily Observations layout. Learn more.

Left ArrowRight Arrow

Hourly Observations for December 31, 2015

Temp ( °F °C ) Dew Point ( °F °C ) Humidity (%) Winds ( mph kmh ) Pressure ( in mb ) Visibility ( mi km ) Precip ( " mm )
12:51 am 00:51 Clear 31 -0.6 21 -6.1 67 67 N N/A 30.11 1020 10 16 N/A
1:51 am 01:51 Clear 33 0.6 21 -6.1 61 61 ESE 5 7 30.11 1020 10 16 N/A
2:51 am 02:51 Clear 27 -2.8 20 -6.7 75 75 WNW 3 6 30.11 1020 10 16 N/A
3:51 am 03:51 Clear 26 -3.3 20 -6.7 78 78 N 5 7 30.10 1019 10 16 N/A
4:51 am 04:51 Clear 26 -3.3 20 -6.7 78 78 N N/A 30.10 1019 10 16 N/A
5:51 am 05:51 Clear 27 -2.8 20 -6.7 75 75 ESE 3 6 30.11 1020 10 16 N/A
6:51 am 06:51 Clear 27 -2.8 20 -6.7 75 75 E 5 7 30.14 1021 10 16 N/A
7:51 am 07:51 Sunny 36 2.2 19 -7.2 50 50 ESE 13 20 30.15 1021 10 16 N/A
8:51 am 08:51 Sunny 39 3.9 19 -7.2 45 45 ESE 16 26 30.15 1021 10 16 N/A
9:51 am 09:51 Sunny 43 6.1 19 -7.2 38 38 ESE 13 20 30.16 1021 10 16 N/A
10:49 am 10:49 Hazy 46 8 19 -7 34 34 E 12 19 30.18 1022 1 1 N/A
10:51 am 10:51 Hazy 47 8.3 20 -6.7 34 34 ESE 12 19 30.15 1021 0 0 N/A
11:01 am 11:01 Hazy 47 8.3 21 -6.1 36 36 ESE 9 15 30.18 1022 4 6 N/A
11:12 am 11:12 Hazy 48 8.9 22 -5.6 36 36 SE 7 11 30.15 1021 1 1 N/A
11:24 am 11:24 Hazy 49 9.4 22 -5.6 35 35 SE 10 17 30.15 1021 4 6 N/A
11:51 am 11:51 Sunny 49 9.4 23 -5 36 36 SSE 9 15 30.11 1020 10 16 N/A
12:51 pm 12:51 Sunny 51 10.6 25 -3.9 36 36 S 6 9 30.07 1018 10 16 N/A
1:43 pm 13:43 Hazy 53 11.7 26 -3.3 35 35 SSE 8 13 30.03 1017 1 2 N/A
1:51 pm 13:51 Sunny 53 11.7 26 -3.3 35 35 SSW 8 13 30.03 1017 10 16 N/A
2:51 pm 14:51 Sunny 55 12.8 28 -2.2 35 35 SSW 8 13 30.01 1016 10 16 N/A
3:51 pm 15:51 Sunny 54 12.2 28 -2.2 37 37 S 6 9 30.02 1017 10 16 N/A
4:51 pm 16:51 Sunny 53 11.7 29 -1.7 40 40 S 3 6 30.01 1016 10 16 N/A
5:51 pm 17:51 Clear 47 8.3 28 -2.2 48 48 N N/A 30.04 1017 10 16 N/A
6:51 pm 18:51 Clear 43 6.1 28 -2.2 56 56 ENE 6 9 30.06 1018 10 16 N/A
7:51 pm 19:51 Clear 43 6.1 28 -2.2 56 56 E 7 11 30.06 1018 10 16 N/A
8:51 pm 20:51 Clear 44 6.7 30 -1.1 58 58 E 8 13 30.06 1018 10 16 N/A
9:51 pm 21:51 Clear 43 6.1 31 -0.6 63 63 SE 8 13 30.07 1018 10 16 N/A
10:51 pm 22:51 Clear 46 7.8 31 -0.6 56 56 SE 9 15 30.07 1018 10 16 N/A
11:51 pm 23:51 Clear 43 6.1 31 -0.6 63 63 SE 9 15 30.08 1019 10 16 N/A

Powered by AerisWeather